Zurück zum Katalog

STARLINK-32516

AktivKommunikationVLEO
NORAD 62176·PAYLOAD·🇺🇸 United States

Gestartet Nov 30, 2024 von Vandenberg Space Force Base

Loading…

Nächste Überflüge (nächste 24 Stunden)

TLE

AktuellSource: CelesTrak SupGP

Epoche: Sep 14, 2026, 22:33 UTC

1 62176C 24225P   26257.94006944 -.00059802  00000+0 -50120-2 0  2577
2 62176  70.0012  47.3885 0003107 274.5533 324.4315 14.98358064    10

Verfolge STARLINK-32516 in Echtzeit mit AllMySat

Download on the App Store